This is the latest recevied weather packets stored in our database for station/object KI5GCD-13. If no packets are shown the sender has not sent any weather packets the latest 10 day(s).
| Time | Temp. | Humidity | Pressure | Rain* | Wind** | Luminosity | Snow |
|---|---|---|---|---|---|---|---|
| 1777427387 | 13.89° C | 99% | 1010.6 hPa | 0 mm | 0.45 m/s, 275° | - | - |
| 1777427088 | 13.89° C | 99% | 1010.2 hPa | 0 mm | 0.45 m/s, 262° | - | - |
| 1777426788 | 13.89° C | 99% | 1010 hPa | 0 mm | 0 m/s | - | - |
| 1777426487 | 13.89° C | 99% | 1009.9 hPa | 0 mm | 0.45 m/s, 267° | - | - |
| 1777426188 | 13.89° C | 99% | 1009.8 hPa | 0 mm | 0.45 m/s, 270° | - | - |
| 1777425888 | 13.89° C | 99% | 1009.7 hPa | 0 mm | 0.89 m/s, 313° | - | - |
| 1777425588 | 14.44° C | 99% | 1009.7 hPa | 0 mm | 1.34 m/s, 309° | - | - |
| 1777425287 | 15° C | 99% | 1009.5 hPa | 0 mm | 0 m/s | - | - |
| 1777424987 | 15° C | 99% | 1009.5 hPa | 0 mm | 0 m/s | - | - |
| 1777424687 | 15° C | 98% | 1009.5 hPa | 0 mm | 0 m/s | - | - |
| 1777424387 | 15° C | 98% | 1009.3 hPa | 0 mm | 1.79 m/s, 291° | - | - |
| 1777424088 | 15.56° C | 99% | 1009.3 hPa | 0 mm | 0.45 m/s, 273° | - | - |
| 1777423787 | 15.56° C | 98% | 1009 hPa | 0 mm | 0.45 m/s, 290° | - | - |
| 1777423487 | 16.11° C | 98% | 1009 hPa | 0 mm | 0.45 m/s, 262° | - | - |
| 1777423188 | 16.11° C | 98% | 1008.5 hPa | 0 mm | 0.45 m/s, 263° | - | - |
| 1777422888 | 16.67° C | 98% | 1008.4 hPa | 0 mm | 0.45 m/s, 296° | - | - |
| 1777422587 | 16.67° C | 98% | 1008.5 hPa | 0 mm | 0 m/s | - | - |
| 1777422287 | 16.67° C | 98% | 1008.3 hPa | 0 mm | 0.45 m/s, 268° | - | - |
| 1777421987 | 17.22° C | 98% | 1008.3 hPa | 0 mm | 0.45 m/s, 278° | - | - |
| 1777421687 | 17.78° C | 98% | 1007.9 hPa | 0 mm | 0 m/s | - | - |
| 1777421388 | 17.78° C | 97% | 1008.1 hPa | 0 mm | 0 m/s | - | - |
| 1777421087 | 17.78° C | 97% | 1008.1 hPa | 0 mm | 0 m/s | - | - |
| 1777420787 | 17.78° C | 97% | 1008 hPa | 0 mm | 0 m/s | - | - |
| 1777420487 | 17.78° C | 97% | 1008 hPa | 0 mm | 0.45 m/s, 264° | - | - |
| 1777420188 | 17.78° C | 97% | 1007.6 hPa | 0 mm | 0.45 m/s, 276° | - | - |
* Rain latest hour (hover to see other rain measurements)
** Current wind speed in m/s (hover to see current wind gust speed)